[[{"header":{"parameterUnit":"m.s-1","parameterCategory":2,"la1":30.2991,"la2":30.254,"lo1":-89.0895,"lo2":-89.0444,"dy":0.0017,"dx":0.0017,"nx":28,"ny":28,"refTime":"2024-08-28T21:00:00:Z","depth":"0","parameterNumber":2,"parameterNumberName":"U-component_of_CURRENTS"},"data":[0,0,0,0,0,0,0,0,0,0,0,0,0,0,0,0,0,0,0,0,0,0,0,0,0,0,0,0,0,0,0,0,0,0,0,0,0,0,0,0,0,0,0,0,0,0,0,0,0,0,0,0,0,0,0,0,0,0,0.2772,0.2772,0,0.2796,0.2796,0.2796,0.2801,0.2802,0.2802,0.2802,0.2785,0.2785,0.2784,0,0,0,0,0,0,0,0,0,0,0,0,0,0.2695,0.2697,0.2772,0.2772,0.2773,0.2796,0.2796,0.2796,0.2801,0.2802,0.2802,0.2802,0.2786,0.2785,0.2784,0,0,0,0,0,0,0,0,0,0,0,0,0,0.2722,0.2697,0.2772,0.2781,0.2782,0.2796,0.2796,0.2796,0.2801,0.2802,0.2802,0.2802,0.2786,0.2785,0.2784,0.2775,0,0,0.2782,0.2781,0,0,0,0,0,0,0,0,0.272,0.2724,0.2779,0.278,0.2782,0.2799,0.2763,0.2788,0.2801,0.2791,0.2802,0.2802,0.2788,0.2787,0.2787,0.2774,0.2773,0.2782,0.2781,0.2781,0.278,0,0,0,0,0,0,0,0.2719,0.2723,0.2778,0.278,0.2782,0.2772,0.2776,0.2768,0.2785,0.2792,0.2793,0.2801,0.2788,0.2788,0.2787,0.2773,0.2782,0.2781,0.278,0.278,0.2801,0.2802,0,0,0,0,0,0,0.2724,0.2722,0.2777,0.2779,0.2755,0.2774,0.2778,0.279,0.2786,0.2786,0.2801,0.2801,0.2789,0.2788,0.2786,0.2826,0.2781,0.278,0.2779,0.28,0.2802,0.2803,0,0,0,0,0,0,0.2723,0.2729,0.2776,0.2753,0.2759,0.2776,0.2789,0.2791,0.28,0.2794,0.2793,0.2809,0.2789,0.2787,0.2791,0.2824,0.278,0.2779,0.2799,0.2801,0.2802,0.2873,0,0,0,0,0,0,0.272,0.2728,0.2737,0.2754,0.2761,0.2798,0.2789,0.2791,0.2805,0.2806,0.28,0.2799,0.2789,0.2792,0.279,0.2822,0.2778,0.2798,0.28,0.2802,0.287,0.2877,0.2884,0,0,0,0,0,0.2717,0.2731,0.2738,0.2744,0.2773,0.2799,0.2801,0.2811,0.2806,0.2817,0.2811,0.2799,0.2804,0.2792,0.2789,0.2822,0.2797,0.2799,0.2802,0.2867,0.2876,0.2884,0,0,0,0,0,0,0.2696,0.2734,0.2741,0.2764,0.2786,0.2801,0.2812,0.2815,0.2819,0.2817,0.2805,0.2803,0.2824,0.2807,0.2794,0.2834,0.2801,0.2803,0.2852,0.286,0.2867,0.2873,0.2777,0,0,0,0,0,0.2698,0.2721,0.2751,0.2769,0.2784,0.2798,0.2808,0.2816,0.2823,0.2825,0.2821,0.2818,0.283,0.2832,0.2833,0.2845,0.285,0.2866,0.2873,0.2879,0.2882,0.2917,0.2928,0.2811,0.2811,0.2811,0,0,0.2694,0.2717,0.273,0.2766,0.2783,0.2806,0.2804,0.2827,0.2843,0.2822,0.2836,0.2841,0.2839,0.2862,0.287,0.2853,0.2919,0.2882,0.2888,0.2887,0.2921,0.2932,0.2943,0.2812,0.2812,0.2812,0,0,0.2694,0.2721,0.274,0.2764,0.2798,0.2814,0.2824,0.2847,0.2857,0.2871,0.2871,0.2895,0.2892,0.2911,0.2917,0.296,0.2956,0.2962,0.3001,0.3036,0.3046,0.3055,0.3094,0.3106,0.2964,0.2964,0.2964,0,0.2685,0.2716,0.2747,0.2772,0.2791,0.282,0.284,0.2861,0.2878,0.2892,0.2884,0.2919,0.292,0.2966,0.2988,0.2979,0.2995,0.2971,0.3047,0.3055,0.3063,0.3101,0.3113,0.2968,0.2968,0.2967,0.2967,0,0.27,0.2726,0.2742,0.2786,0.2811,0.2836,0.2873,0.2895,0.291,0.2931,0.2975,0.2986,0.3007,0.3023,0.3019,0.3084,0.3078,0.3055,0.3027,0.308,0.3116,0.3127,0.2973,0.2972,0.2971,0.297,0,0,0.2673,0.2738,0.2743,0.2767,0.282,0.2844,0.2881,0.2928,0.2966,0.2988,0.3032,0.307,0.3085,0.3093,0.3104,0.3141,0.3223,0.3126,0.3126,0.3169,0.331,0.3281,0.329,0.3214,0.3216,0.3218,0.3319,0,0.2673,0.2717,0.2749,0.2792,0.2821,0.2862,0.2902,0.2948,0.2991,0.3043,0.3076,0.3126,0.311,0.3139,0.3172,0.3212,0.3253,0.3198,0.3248,0.325,0.3222,0.3302,0.3197,0.3276,0.333,0.3332,0.3333,0,0.2672,0.2707,0.2741,0.2809,0.2826,0.2855,0.2931,0.2975,0.3058,0.3093,0.3144,0.3174,0.3244,0.3218,0.3306,0.3273,0.3297,0.3322,0.3325,0.3279,0.3242,0.3228,0.3294,0.3246,0.335,0.3349,0.3348,0,0.2636,0.2701,0.2727,0.2748,0.2828,0.285,0.29,0.2985,0.3024,0.3135,0.3172,0.3251,0.3293,0.3338,0.3383,0.3355,0.3478,0.3438,0.3436,0.3434,0.3343,0.333,0.3368,0.35,0.3499,0.3499,0.3499,0,0.2621,0.2642,0.2715,0.2729,0.2771,0.2842,0.2894,0.2963,0.3053,0.3108,0.3195,0.3246,0.3325,0.3392,0.3421,0.3474,0.3506,0.3466,0.3466,0.3366,0.3354,0.3303,0.3271,0.3503,0.3502,0.3501,0.3501,0,0.2565,0.2613,0.2645,0.2726,0.2747,0.2781,0.286,0.2906,0.3015,0.3087,0.3121,0.3252,0.3356,0.343,0.3528,0.352,0.3492,0.3582,0.3466,0.345,0.3376,0.335,0.3239,0.3136,0.3597,0.3597,0.3597,0,0.2537,0.255,0.2617,0.2632,0.266,0.2715,0.2747,0.2861,0.2907,0.3078,0.3102,0.3247,0.3318,0.347,0.352,0.3592,0.3488,0.3521,0.3439,0.3381,0.3354,0.3203,0.3113,0.3358,0.3357,0.3355,0.3354,0,0.2485,0.2506,0.2534,0.2566,0.2593,0.2616,0.2677,0.2699,0.2842,0.2916,0.3029,0.3115,0.329,0.3343,0.3464,0.3481,0.3364,0.3489,0.3457,0.3202,0.3011,0.2908,0.3291,0.3339,0.3341,0.3342,0.3343,0.3343,0.2439,0.2445,0.2486,0.2496,0.2517,0.2515,0.25,0.2578,0.2636,0.2734,0.2887,0.299,0.3177,0.3336,0.3337,0.3318,0.3262,0.3248,0.3237,0.31,0.2946,0.3305,0.3329,0.333,0.3331,0.3332,0.3333,0,0.2401,0.2411,0.2417,0.2422,0.2387,0.243,0.2443,0.2417,0.2439,0.26,0.2688,0.2885,0.298,0.3108,0.3207,0.3118,0.2929,0.3033,0.2806,0.274,0.3106,0.3041,0.2968,0.2968,0.2968,0.2968,0.2968,0.2968,0.2391,0.2379,0.237,0.2292,0.2276,0.2204,0.218,0.2174,0.2252,0.2347,0.247,0.262,0.2914,0.3105,0.3087,0.2995,0.2756,0.2619,0.2596,0.2896,0.2915,0.2932,0.2866,0.2757,0.2756,0.2104,0.2099,0.2096]},{"header":{"parameterUnit":"m.s-1","parameterCategory":2,"la1":30.2991,"la2":30.254,"lo1":-89.0895,"lo2":-89.0444,"dy":0.0017,"dx":0.0017,"nx":28,"ny":28,"refTime":"2024-08-28T21:00:00:Z","depth":"0","parameterNumber":3,"parameterNumberName":"V-component_of_CURRENTS"},"data":[0,0,0,0,0,0,0,0,0,0,0,0,0,0,0,0,0,0,0,0,0,0,0,0,0,0,0,0,0,0,0,0,0,0,0,0,0,0,0,0,0,0,0,0,0,0,0,0,0,0,0,0,0,0,0,0,0,0,0.0151,0.015,0,0.0095,0.0094,0.0093,0.0051,0.0051,0.0051,0.0051,-0.0051,-0.0053,-0.0056,0,0,0,0,0,0,0,0,0,0,0,0,0,0.0182,0.0182,0.0151,0.015,0.015,0.0095,0.0094,0.0093,0.0051,0.0051,0.0051,0.005,-0.005,-0.0053,-0.0056,0,0,0,0,0,0,0,0,0,0,0,0,0,0.0151,0.0182,0.0151,0.0123,0.012,0.0095,0.0094,0.0093,0.0052,0.0051,0.0051,0.005,-0.0049,-0.0053,-0.0056,-0.007,0,0,-0.0067,-0.0069,0,0,0,0,0,0,0,0,0.0152,0.0149,0.0128,0.0125,0.0122,0.0081,0.0068,0.0036,0.0052,0.0077,0.0051,0.005,-0.001,-0.0017,-0.0027,-0.0075,-0.0079,-0.0068,-0.007,-0.0071,-0.0073,0,0,0,0,0,0,0,0.0155,0.0151,0.0128,0.0127,0.0123,0.01,0.0095,0.0062,0.0035,0.0074,0.0071,0.0067,-0.0012,-0.0024,-0.003,-0.0081,-0.0068,-0.0071,-0.0073,-0.0075,-0.0144,-0.0143,0,0,0,0,0,0,0.0166,0.0154,0.013,0.0126,0.0137,0.01,0.0094,0.0093,0.0036,0.0027,0.0067,0.0065,-0.0017,-0.0026,-0.0034,-0.0044,-0.0071,-0.0075,-0.0077,-0.0144,-0.0143,-0.0143,0,0,0,0,0,0,0.0167,0.0165,0.0132,0.0139,0.0133,0.01,0.0099,0.0092,0.0081,0.0031,0.0022,0.0063,-0.0018,-0.0029,-0.0056,-0.0049,-0.0077,-0.008,-0.0144,-0.0144,-0.0143,-0.0071,0,0,0,0,0,0,0.0168,0.0166,0.0169,0.014,0.0133,0.0124,0.0099,0.0092,0.0079,0.0076,0.0024,0.0014,-0.0019,-0.005,-0.006,-0.0055,-0.0083,-0.0145,-0.0144,-0.0143,-0.0074,-0.0069,-0.0064,0,0,0,0,0,0.017,0.0183,0.017,0.0167,0.0139,0.0125,0.0119,0.0093,0.008,0.008,0.0047,0.0016,-0.0053,-0.0053,-0.0064,-0.006,-0.0145,-0.0144,-0.0143,-0.0077,-0.007,-0.0064,0,0,0,0,0,0,0.0201,0.0179,0.0164,0.017,0.015,0.0118,0.0119,0.0098,0.0072,0.007,0.002,0.0008,-0.0013,-0.0046,-0.0044,-0.0078,-0.0104,-0.0105,-0.005,-0.0043,-0.0038,-0.0014,-0.0086,0,0,0,0,0,0.0209,0.0212,0.0184,0.0189,0.0182,0.015,0.0141,0.0123,0.0097,0.0085,0.0049,0.0012,-0.0019,-0.0037,-0.0069,-0.0088,-0.0112,-0.0093,-0.0087,-0.0082,-0.0071,-0.0103,-0.0099,-0.014,-0.014,-0.014,0,0,0.0224,0.0212,0.0213,0.0195,0.0179,0.018,0.0143,0.0137,0.0137,0.0078,0.0068,0.0029,-0.0019,-0.0037,-0.005,-0.0064,-0.0083,-0.0081,-0.0077,-0.0068,-0.0101,-0.0097,-0.0094,-0.014,-0.014,-0.014,0,0,0.0258,0.0243,0.0256,0.0244,0.0225,0.0206,0.0207,0.0177,0.0163,0.0146,0.0106,0.0076,0.0027,-0.0003,-0.0025,-0.0011,-0.0053,-0.0025,0.002,-0.0011,-0.0008,-0.0005,-0.0023,-0.0023,-0.0023,-0.0022,-0.0022,0,0.0276,0.0287,0.0258,0.0267,0.0266,0.0223,0.0238,0.0218,0.0184,0.0179,0.0154,0.0091,0.0045,0.0026,0.003,0.0002,-0.0018,0.0001,-0.0003,-0.0001,0.0001,-0.0019,-0.0019,-0.0019,-0.0019,-0.002,-0.002,0,0.0316,0.0325,0.0333,0.033,0.0325,0.0332,0.0304,0.0296,0.0271,0.0248,0.0222,0.0161,0.0127,0.0102,0.0068,0.0058,0.004,0.0009,-0.0015,0.0009,-0.0013,-0.0015,-0.0014,-0.0015,-0.0016,-0.0017,0,0,0.0357,0.0361,0.0364,0.0377,0.036,0.0364,0.0368,0.0359,0.0372,0.032,0.0328,0.026,0.0227,0.0199,0.0148,0.0115,0.0103,0.0073,0.007,0.0063,0.0046,0.0029,0.0025,0.007,0.007,0.007,0.0029,0,0.0396,0.0431,0.0421,0.0457,0.0474,0.0446,0.0457,0.0444,0.0423,0.0419,0.035,0.0332,0.0263,0.0249,0.0206,0.0132,0.01,0.0118,0.0016,0.0014,0.0002,0.0023,0.0037,0.0001,0.0027,0.0027,0.0026,0,0.044,0.0458,0.0503,0.0527,0.0533,0.0551,0.0569,0.0572,0.0551,0.0535,0.05,0.0445,0.0393,0.0328,0.0219,0.0234,0.0152,0.0086,0.0082,0.0042,-0.0006,-0.0022,-0.0003,-0.0169,0.0023,0.0024,0.0024,0,0.0487,0.0517,0.0558,0.0565,0.0583,0.0606,0.0616,0.0613,0.0634,0.0612,0.0628,0.0543,0.0519,0.04,0.0263,0.0242,0.0145,0.0094,0.0002,-0.0,-0.002,-0.0024,-0.0166,0.0018,0.0018,0.0018,0.0018,0,0.0535,0.0568,0.0587,0.0611,0.067,0.0663,0.0725,0.0721,0.0737,0.0786,0.0697,0.0717,0.0537,0.0456,0.0308,0.0164,0.0178,0.0021,-0.001,0.0005,0.0005,-0.0167,-0.0265,0.0016,0.0017,0.0017,0.0017,0,0.0585,0.0593,0.0646,0.068,0.0698,0.0742,0.0802,0.0846,0.0852,0.0916,0.0916,0.0854,0.0753,0.0569,0.0387,0.0243,-0.0007,0.0029,0.0068,0.0041,-0.0211,-0.0305,-0.0481,-0.0547,-0.0081,-0.0081,-0.0082,0,0.0614,0.0647,0.0703,0.0744,0.0766,0.0829,0.0879,0.0902,0.096,0.1012,0.1055,0.0981,0.0955,0.0684,0.0403,0.0149,-0.0016,-0.0009,-0.0059,-0.0214,-0.0343,-0.0416,-0.0464,-0.0056,-0.0056,-0.0057,-0.0057,0,0.0673,0.0693,0.0738,0.082,0.0883,0.0956,0.1033,0.1096,0.1144,0.1209,0.1282,0.1267,0.1018,0.0761,0.0405,0.0226,-0.0127,-0.0022,-0.0197,-0.0343,-0.0417,-0.0498,-0.0036,-0.0059,-0.0058,-0.0058,-0.0058,-0.0058,0.0723,0.0767,0.0828,0.0905,0.0978,0.1077,0.1149,0.1245,0.1357,0.1464,0.1445,0.1464,0.1097,0.0611,0.0334,-0.015,-0.0166,-0.0302,-0.0403,-0.0461,-0.0533,-0.0067,-0.012,-0.0121,-0.0121,-0.0121,-0.0121,0,0.0785,0.0834,0.0907,0.1001,0.1082,0.1112,0.1247,0.133,0.1475,0.1584,0.1642,0.1497,0.1029,0.0567,-0.0095,-0.0461,-0.0587,-0.0657,-0.0766,-0.0796,-0.0391,-0.0397,-0.0495,-0.0494,-0.0494,-0.0494,-0.0494,-0.0494,0.0825,0.09,0.093,0.1066,0.1134,0.1252,0.1331,0.1461,0.1569,0.1706,0.1744,0.174,0.1424,0.0192,-0.0641,-0.0833,-0.1076,-0.1149,-0.1274,-0.1015,-0.0989,-0.0965,-0.0994,-0.1215,-0.1216,-0.1618,-0.1622,-0.1626]}],[{"header":{"parameterUnit":"m.s-1","parameterCategory":2,"la1":30.2991,"la2":30.254,"lo1":-89.0895,"lo2":-89.0444,"dy":0.0017,"dx":0.0017,"nx":28,"ny":28,"refTime":"2024-08-28T21:00:00:Z","depth":"2","parameterNumber":2,"parameterNumberName":"U-component_of_CURRENTS"},"data":[0,0,0,0,0,0,0,0,0,0,0,0,0,0,0,0,0,0,0,0,0,0,0,0,0,0,0,0,0,0,0,0,0,0,0,0,0,0,0,0,0,0,0,0,0,0,0,0,0,0,0,0,0,0,0,0,0,0,0.2511,0.2512,0,0.2534,0.2534,0.2534,0.2563,0.2564,0.2564,0.2565,0.2592,0.2593,0.2593,0,0,0,0,0,0,0,0,0,0,0,0,0,0.2445,0.2446,0.2511,0.2512,0.2512,0.2534,0.2534,0.2534,0.2563,0.2564,0.2564,0.2565,0.2592,0.2592,0.2593,0,0,0,0,0,0,0,0,0,0,0,0,0,0.2469,0.2447,0.2511,0.2531,0.2533,0.2534,0.2534,0.2534,0.2563,0.2564,0.2565,0.2566,0.2592,0.2592,0.2593,0.2573,0,0,0.2593,0.2593,0,0,0,0,0,0,0,0,0.2468,0.2471,0.2528,0.253,0.2532,0.2549,0.2521,0.2548,0.2562,0.2549,0.2565,0.2566,0.2579,0.258,0.2579,0.2574,0.2576,0.2593,0.2593,0.2593,0.2593,0,0,0,0,0,0,0,0.2466,0.247,0.2518,0.2528,0.2531,0.2523,0.2527,0.2526,0.2556,0.255,0.2553,0.2559,0.258,0.2579,0.258,0.2576,0.2593,0.2593,0.2593,0.2593,0.2636,0.2637,0,0,0,0,0,0,0.247,0.2469,0.2517,0.2519,0.2505,0.2523,0.2528,0.254,0.2556,0.256,0.2558,0.256,0.2578,0.258,0.2581,0.2637,0.2593,0.2593,0.2593,0.2635,0.2636,0.2637,0,0,0,0,0,0,0.2468,0.2474,0.2516,0.2496,0.2501,0.2524,0.2537,0.254,0.2565,0.2563,0.2566,0.2582,0.2579,0.2581,0.2604,0.2635,0.2593,0.2594,0.2634,0.2635,0.2637,0.2698,0,0,0,0,0,0,0.2466,0.2473,0.2483,0.2496,0.2502,0.2541,0.2536,0.254,0.2566,0.257,0.2584,0.2586,0.258,0.2604,0.2604,0.2635,0.2594,0.2632,0.2634,0.2636,0.2695,0.2702,0.2708,0,0,0,0,0,0.2464,0.2477,0.2484,0.249,0.2516,0.2542,0.2545,0.2562,0.2567,0.2586,0.2593,0.2587,0.2616,0.2604,0.2604,0.2636,0.2631,0.2634,0.2636,0.2692,0.27,0.2707,0,0,0,0,0,0,0.2451,0.2482,0.2489,0.2511,0.2536,0.2549,0.2566,0.2574,0.2593,0.26,0.2596,0.2598,0.2635,0.2622,0.2609,0.2654,0.2625,0.2627,0.2667,0.2675,0.2681,0.27,0.2594,0,0,0,0,0,0.2452,0.2476,0.25,0.252,0.2536,0.2553,0.2566,0.258,0.2596,0.2607,0.2613,0.2622,0.2639,0.2647,0.2656,0.2672,0.2677,0.2694,0.27,0.2706,0.2722,0.2743,0.2753,0.2645,0.2645,0.2645,0,0,0.2451,0.2473,0.2484,0.252,0.2539,0.2561,0.2565,0.2597,0.2616,0.2605,0.2635,0.2648,0.265,0.2678,0.2692,0.2674,0.2741,0.2709,0.2714,0.2727,0.2746,0.2757,0.2766,0.2647,0.2646,0.2646,0,0,0.2458,0.2485,0.2505,0.2529,0.2566,0.2581,0.2597,0.2624,0.2643,0.2669,0.2673,0.2705,0.2716,0.2731,0.2737,0.2781,0.2778,0.2786,0.283,0.285,0.2859,0.2867,0.2897,0.2907,0.2783,0.2783,0.2783,0,0.2455,0.2484,0.2514,0.2539,0.2557,0.2594,0.2614,0.2639,0.2668,0.2688,0.269,0.2736,0.2743,0.2782,0.2809,0.2798,0.2812,0.2801,0.2859,0.2867,0.2875,0.2902,0.2913,0.2787,0.2786,0.2786,0.2786,0,0.2471,0.2499,0.2518,0.2561,0.2583,0.2615,0.265,0.2681,0.2709,0.2733,0.2787,0.2801,0.2826,0.2841,0.2845,0.2904,0.29,0.287,0.2841,0.2889,0.2915,0.2925,0.2791,0.279,0.2789,0.2788,0,0,0.2449,0.2516,0.2521,0.2546,0.2599,0.2621,0.2663,0.2713,0.2755,0.2791,0.2835,0.2885,0.2904,0.2913,0.2921,0.2955,0.3029,0.2947,0.2947,0.298,0.3092,0.3049,0.3055,0.3012,0.3014,0.3015,0.3093,0,0.2454,0.2498,0.2527,0.2571,0.26,0.2644,0.2684,0.2734,0.2782,0.2836,0.2874,0.2928,0.2925,0.2955,0.2985,0.3023,0.3057,0.3012,0.3037,0.3039,0.2997,0.3065,0.2836,0.2883,0.3103,0.3104,0.3105,0,0.245,0.2486,0.2523,0.2591,0.2608,0.264,0.2714,0.2757,0.2842,0.2882,0.2935,0.2969,0.3037,0.302,0.31,0.3074,0.3096,0.312,0.3122,0.3068,0.3014,0.2868,0.2892,0.3121,0.312,0.3119,0.3118,0,0.2411,0.2479,0.2511,0.2532,0.2612,0.2642,0.2692,0.2775,0.2816,0.2921,0.2962,0.3033,0.3076,0.3116,0.3166,0.3144,0.325,0.3206,0.3185,0.3182,0.2986,0.2962,0.3261,0.3261,0.3261,0.326,0.326,0,0.2398,0.2423,0.2505,0.252,0.2568,0.2636,0.2693,0.2759,0.2848,0.2902,0.2984,0.303,0.3108,0.3166,0.3194,0.323,0.3262,0.3221,0.3207,0.3001,0.298,0.3176,0.3165,0.3263,0.3263,0.3262,0.3262,0,0.2344,0.2398,0.2436,0.2523,0.2547,0.2585,0.2671,0.2717,0.2824,0.289,0.2927,0.3047,0.3138,0.3201,0.3285,0.3263,0.3305,0.3303,0.3071,0.3029,0.3217,0.3209,0.3291,0.329,0.329,0.3289,0.3289,0,0.2319,0.2335,0.241,0.243,0.2469,0.2531,0.2567,0.2682,0.2729,0.2886,0.2908,0.3043,0.3098,0.3215,0.3234,0.328,0.3316,0.3075,0.2986,0.3246,0.3224,0.3216,0.3209,0.2752,0.2748,0.2744,0.274,0,0.227,0.2298,0.2328,0.2368,0.2407,0.2437,0.2506,0.2533,0.267,0.2737,0.2839,0.291,0.3044,0.3001,0.3081,0.3064,0.305,0.2998,0.3325,0.2785,0.2745,0.2721,0.273,0.2706,0.2709,0.2712,0.2714,0.2715,0.2229,0.2234,0.2278,0.2301,0.2331,0.2342,0.2336,0.2411,0.2464,0.2541,0.2682,0.272,0.2796,0.2808,0.2748,0.2716,0.2917,0.2782,0.279,0.2804,0.2732,0.2694,0.2632,0.2635,0.2638,0.264,0.2642,0,0.2189,0.2203,0.2212,0.223,0.2206,0.2263,0.2285,0.2254,0.2266,0.2383,0.2446,0.2313,0.2322,0.2391,0.2308,0.2333,0.2269,0.2222,0.2116,0.2155,0.2189,0.2081,0.1811,0.1808,0.1805,0.1802,0,0,0.2174,0.2164,0.2153,0.2099,0.2104,0.2052,0.2039,0.2013,0.2058,0.2029,0.2048,0.2235,0.2357,0.2058,0.2036,0.191,0.2005,0.1834,0.2514,0.2432,0.2461,0.2541,0.2425,0,0,0,0,0]},{"header":{"parameterUnit":"m.s-1","parameterCategory":2,"la1":30.2991,"la2":30.254,"lo1":-89.0895,"lo2":-89.0444,"dy":0.0017,"dx":0.0017,"nx":28,"ny":28,"refTime":"2024-08-28T21:00:00:Z","depth":"2","parameterNumber":3,"parameterNumberName":"V-component_of_CURRENTS"},"data":[0,0,0,0,0,0,0,0,0,0,0,0,0,0,0,0,0,0,0,0,0,0,0,0,0,0,0,0,0,0,0,0,0,0,0,0,0,0,0,0,0,0,0,0,0,0,0,0,0,0,0,0,0,0,0,0,0,0,0.0004,0.0004,0,-0.0043,-0.0044,-0.0045,-0.0084,-0.0084,-0.0085,-0.0085,-0.0174,-0.0176,-0.0178,0,0,0,0,0,0,0,0,0,0,0,0,0,0.0035,0.0035,0.0004,0.0004,0.0003,-0.0043,-0.0044,-0.0045,-0.0084,-0.0084,-0.0085,-0.0085,-0.0173,-0.0176,-0.0178,0,0,0,0,0,0,0,0,0,0,0,0,0,0.0007,0.0035,0.0004,-0.0021,-0.0023,-0.0043,-0.0044,-0.0045,-0.0084,-0.0084,-0.0085,-0.0085,-0.0172,-0.0175,-0.0179,-0.019,0,0,-0.0188,-0.019,0,0,0,0,0,0,0,0,0.0008,0.0005,-0.0016,-0.0019,-0.0022,-0.0057,-0.0066,-0.0095,-0.0084,-0.0062,-0.0085,-0.0085,-0.0137,-0.0143,-0.0153,-0.0194,-0.0198,-0.0189,-0.019,-0.0192,-0.0193,0,0,0,0,0,0,0,0.001,0.0007,-0.0016,-0.0017,-0.002,-0.0038,-0.0043,-0.0072,-0.0099,-0.0064,-0.0067,-0.007,-0.0139,-0.015,-0.0155,-0.0199,-0.0188,-0.0191,-0.0193,-0.0194,-0.0257,-0.0256,0,0,0,0,0,0,0.0021,0.0009,-0.0015,-0.0017,-0.0006,-0.0038,-0.0043,-0.0046,-0.0098,-0.0105,-0.0069,-0.0071,-0.0144,-0.0152,-0.0159,-0.0168,-0.0192,-0.0195,-0.0197,-0.0257,-0.0257,-0.0256,0,0,0,0,0,0,0.0022,0.002,-0.0013,-0.0004,-0.0009,-0.0038,-0.0041,-0.0047,-0.0055,-0.0101,-0.011,-0.0071,-0.0145,-0.0154,-0.0177,-0.0172,-0.0196,-0.0199,-0.0257,-0.0257,-0.0256,-0.0191,0,0,0,0,0,0,0.0023,0.002,0.0023,-0.0003,-0.0009,-0.0017,-0.0041,-0.0048,-0.0056,-0.0059,-0.0105,-0.0114,-0.0146,-0.0172,-0.018,-0.0177,-0.0202,-0.0257,-0.0257,-0.0257,-0.0193,-0.0188,-0.0184,0,0,0,0,0,0.0024,0.0036,0.0024,0.0021,-0.0004,-0.0017,-0.0021,-0.0045,-0.0055,-0.0055,-0.0084,-0.0113,-0.0175,-0.0174,-0.0184,-0.0181,-0.0258,-0.0257,-0.0257,-0.0195,-0.0189,-0.0184,0,0,0,0,0,0,0.0053,0.0032,0.0019,0.0023,0.0006,-0.0023,-0.002,-0.0038,-0.0061,-0.0062,-0.0108,-0.0119,-0.0137,-0.0167,-0.0165,-0.0198,-0.0222,-0.0223,-0.0172,-0.0167,-0.0162,-0.0137,-0.0204,0,0,0,0,0,0.0061,0.0063,0.0037,0.0042,0.0037,0.0009,0.0002,-0.0014,-0.0037,-0.0047,-0.0079,-0.0114,-0.0143,-0.016,-0.0189,-0.0206,-0.0232,-0.0212,-0.0207,-0.0202,-0.0189,-0.0224,-0.0221,-0.0254,-0.0254,-0.0254,0,0,0.0074,0.0063,0.0064,0.0048,0.0034,0.0036,0.0003,0.0001,0.0,-0.0053,-0.0061,-0.0097,-0.0143,-0.016,-0.0172,-0.0185,-0.0207,-0.0202,-0.0198,-0.0186,-0.0223,-0.022,-0.0217,-0.0254,-0.0254,-0.0254,0,0,0.0107,0.0092,0.0105,0.0095,0.008,0.0063,0.0065,0.004,0.0027,0.0013,-0.0025,-0.0053,-0.0097,-0.0128,-0.015,-0.0137,-0.0179,-0.0151,-0.0109,-0.0143,-0.0141,-0.0138,-0.0165,-0.0166,-0.015,-0.015,-0.015,0,0.0124,0.0134,0.0108,0.0117,0.0117,0.008,0.0095,0.0076,0.0047,0.0042,0.0021,-0.0038,-0.0081,-0.0103,-0.01,-0.0126,-0.0148,-0.0125,-0.0136,-0.0134,-0.0133,-0.0161,-0.0163,-0.0147,-0.0147,-0.0148,-0.0148,0,0.0162,0.017,0.018,0.0178,0.0174,0.0182,0.0155,0.0149,0.0128,0.0106,0.0083,0.0025,-0.0008,-0.0032,-0.0063,-0.0076,-0.0095,-0.0123,-0.0146,-0.0126,-0.0157,-0.016,-0.0142,-0.0143,-0.0144,-0.0145,0,0,0.02,0.0206,0.0208,0.0221,0.0208,0.0211,0.0214,0.0206,0.0216,0.0172,0.0175,0.0114,0.0084,0.0057,0.0007,-0.0026,-0.0045,-0.0064,-0.0067,-0.0082,-0.0112,-0.0127,-0.0133,-0.0075,-0.0075,-0.0075,-0.0135,0,0.0238,0.0273,0.0263,0.0297,0.0314,0.0288,0.0297,0.0285,0.0264,0.0256,0.0191,0.0174,0.0115,0.0102,0.0059,-0.0015,-0.0049,-0.0025,-0.0136,-0.0139,-0.0149,-0.0136,-0.0107,-0.0158,-0.0139,-0.0139,-0.014,0,0.0279,0.0296,0.034,0.0363,0.0369,0.0385,0.0399,0.0401,0.0376,0.036,0.0326,0.0275,0.0223,0.0168,0.0055,0.0075,-0.0006,-0.007,-0.0075,-0.0111,-0.016,-0.0177,-0.0165,-0.0145,-0.0145,-0.0144,-0.0144,0,0.0322,0.0351,0.0392,0.0398,0.0416,0.0438,0.0447,0.044,0.0458,0.0431,0.0442,0.0359,0.0332,0.0219,0.0086,0.0072,-0.0038,-0.0081,-0.0173,-0.0175,-0.0182,-0.0185,-0.0159,-0.0159,-0.0158,-0.0158,-0.0158,0,0.0367,0.0398,0.042,0.0443,0.0497,0.0492,0.0547,0.0541,0.0551,0.0588,0.0505,0.0512,0.0346,0.0259,0.0121,-0.0024,-0.0015,-0.0155,-0.0189,-0.0159,-0.0158,-0.0174,-0.0175,-0.0161,-0.016,-0.016,-0.0159,0,0.0411,0.0423,0.0473,0.0506,0.0523,0.0564,0.062,0.0657,0.066,0.0705,0.0705,0.0633,0.0523,0.0349,0.0168,0.0036,-0.0115,-0.0172,-0.012,-0.0147,-0.0239,-0.0236,-0.0281,-0.0282,-0.0283,-0.0283,-0.0284,0,0.0437,0.0468,0.0523,0.0561,0.0583,0.0643,0.0689,0.071,0.0756,0.0784,0.0813,0.0729,0.068,0.0411,0.0163,-0.0076,-0.0112,-0.0207,-0.0238,-0.0221,-0.0251,-0.0246,-0.0242,-0.0225,-0.0225,-0.0225,-0.0225,0,0.0484,0.0505,0.0545,0.0623,0.0682,0.0751,0.0819,0.0872,0.0908,0.0949,0.0985,0.0952,0.0711,0.0472,0.0147,-0.0012,-0.017,-0.0217,-0.0212,-0.0196,-0.0173,-0.02,-0.0197,-0.0225,-0.0225,-0.0225,-0.0225,-0.0225,0.0519,0.0554,0.061,0.0685,0.0757,0.0847,0.0911,0.0983,0.1065,0.1128,0.1106,0.1074,0.0807,0.0398,0.011,-0.0181,-0.0173,-0.0277,-0.0275,-0.0273,-0.0253,-0.0233,-0.0293,-0.0293,-0.0293,-0.0294,-0.0294,0,0.0555,0.0599,0.0667,0.0754,0.0833,0.0875,0.0989,0.1044,0.1139,0.1213,0.124,0.1005,0.0749,0.0449,0.0013,-0.0255,-0.0269,-0.0331,-0.0296,-0.0293,-0.0291,-0.0271,-0.0316,-0.0317,-0.0318,-0.0318,0,0,0.0574,0.0636,0.0665,0.0793,0.0869,0.0978,0.1047,0.1128,0.1198,0.1241,0.1248,0.1225,0.0863,0.0542,0.0177,-0.0073,-0.0118,-0.0114,-0.0065,0.0022,0.0027,-0.0227,-0.0189,0,0,0,0,0]}],[{"header":{"parameterUnit":"m.s-1","parameterCategory":2,"la1":30.2991,"la2":30.254,"lo1":-89.0895,"lo2":-89.0444,"dy":0.0017,"dx":0.0017,"nx":28,"ny":28,"refTime":"2024-08-28T21:00:00:Z","depth":"4","parameterNumber":2,"parameterNumberName":"U-component_of_CURRENTS"},"data":[0,0,0,0,0,0,0,0,0,0,0,0,0,0,0,0,0,0,0,0,0,0,0,0,0,0,0,0,0,0,0,0,0,0,0,0,0,0,0,0,0,0,0,0,0,0,0,0,0,0,0,0,0,0,0,0,0,0,0.1478,0.1479,0,0.1543,0.1543,0.1544,0.1586,0.1587,0.1587,0.1588,0.1661,0.1662,0.1664,0,0,0,0,0,0,0,0,0,0,0,0,0,0.1406,0.1407,0.1477,0.1479,0.148,0.1543,0.1543,0.1544,0.1586,0.1587,0.1587,0.1588,0.166,0.1662,0.1664,0,0,0,0,0,0,0,0,0,0,0,0,0,0.1447,0.1407,0.1477,0.1511,0.1515,0.1543,0.1543,0.1544,0.1586,0.1587,0.1588,0.1588,0.166,0.1662,0.1664,0.1658,0,0,0.167,0.1671,0,0,0,0,0,0,0,0,0.1445,0.1449,0.1505,0.1509,0.1513,0.1561,0.1545,0.1584,0.1586,0.1555,0.1588,0.1589,0.163,0.1634,0.1639,0.1662,0.1665,0.167,0.1672,0.1673,0.1673,0,0,0,0,0,0,0,0.1442,0.1447,0.15,0.1506,0.1511,0.1529,0.1535,0.1553,0.1584,0.1558,0.1562,0.1575,0.1632,0.1637,0.1641,0.1666,0.167,0.1672,0.1673,0.1674,0.1778,0.1779,0,0,0,0,0,0,0.144,0.1444,0.1498,0.1502,0.1485,0.153,0.1537,0.1541,0.1584,0.1592,0.1574,0.1577,0.1633,0.1639,0.1644,0.1727,0.1673,0.1675,0.1676,0.1776,0.1778,0.178,0,0,0,0,0,0,0.1438,0.1443,0.1495,0.1478,0.1486,0.153,0.1535,0.1542,0.1583,0.1596,0.1604,0.1612,0.1634,0.1641,0.169,0.1726,0.1675,0.1677,0.1774,0.1777,0.1779,0.1836,0,0,0,0,0,0,0.1435,0.1442,0.146,0.1478,0.1487,0.1532,0.1535,0.1543,0.1589,0.1594,0.1631,0.1637,0.1635,0.1687,0.1692,0.1728,0.1679,0.1772,0.1775,0.1778,0.1832,0.184,0.1846,0,0,0,0,0,0.1432,0.145,0.146,0.1468,0.1505,0.1533,0.154,0.1572,0.1591,0.1611,0.1641,0.1637,0.1709,0.169,0.1696,0.1733,0.1771,0.1775,0.1778,0.1829,0.1838,0.1846,0,0,0,0,0,0,0.1433,0.1457,0.1468,0.1495,0.1522,0.1542,0.1574,0.1592,0.1631,0.1648,0.1656,0.1664,0.1721,0.1719,0.1698,0.1771,0.174,0.1744,0.1777,0.1786,0.1793,0.1791,0.1681,0,0,0,0,0,0.1439,0.146,0.1483,0.1509,0.1527,0.1556,0.158,0.16,0.163,0.165,0.1677,0.1705,0.1733,0.1754,0.1775,0.1814,0.1818,0.1842,0.1849,0.1855,0.1858,0.1896,0.1907,0.1791,0.1791,0.1791,0,0,0.1445,0.1465,0.1476,0.1511,0.1538,0.1564,0.1573,0.1618,0.1647,0.1651,0.1712,0.1736,0.175,0.1796,0.1821,0.1803,0.1893,0.186,0.1865,0.1864,0.1901,0.1912,0.1922,0.1793,0.1793,0.1792,0,0,0.1459,0.1489,0.1508,0.1533,0.1582,0.1598,0.1619,0.1659,0.1689,0.1741,0.1754,0.18,0.1844,0.1858,0.1869,0.1928,0.1931,0.1945,0.198,0.2017,0.2027,0.2036,0.2064,0.2075,0.1946,0.1946,0.1946,0,0.1471,0.1493,0.152,0.1548,0.1576,0.1616,0.1644,0.1676,0.1729,0.1758,0.1771,0.1854,0.1868,0.1917,0.1941,0.1944,0.1967,0.1945,0.2027,0.2035,0.2043,0.207,0.2081,0.1949,0.1949,0.1949,0.1949,0,0.1486,0.152,0.154,0.1582,0.1614,0.1651,0.1692,0.1737,0.1783,0.1813,0.189,0.1918,0.1965,0.1981,0.1982,0.2048,0.2048,0.2033,0.2003,0.2058,0.2083,0.2094,0.1954,0.1953,0.1952,0.1951,0,0,0.1469,0.1536,0.1546,0.1576,0.1639,0.1665,0.172,0.1775,0.1828,0.1885,0.1949,0.2001,0.2034,0.2048,0.2065,0.2098,0.2175,0.2098,0.2099,0.2124,0.2267,0.2132,0.213,0.2184,0.2186,0.2188,0.2265,0,0.1478,0.1529,0.1561,0.1618,0.1649,0.1702,0.1752,0.181,0.1873,0.1945,0.1989,0.2062,0.2054,0.2101,0.2132,0.2172,0.2205,0.2155,0.2212,0.2214,0.2084,0.2137,0.2194,0.2273,0.2275,0.2277,0.2278,0,0.1475,0.1515,0.1568,0.1644,0.1665,0.171,0.1804,0.1856,0.1952,0.2006,0.2078,0.2123,0.2195,0.2179,0.2264,0.2242,0.2261,0.2278,0.2281,0.2139,0.2096,0.2205,0.2297,0.2295,0.2294,0.2293,0.2292,0,0.144,0.1517,0.1564,0.159,0.168,0.1727,0.1786,0.1883,0.1935,0.2062,0.2118,0.2203,0.2266,0.2306,0.2343,0.2324,0.2425,0.2395,0.2286,0.2277,0.2351,0.2341,0.2447,0.2447,0.2447,0.2446,0.2446,0,0.142,0.1462,0.1562,0.1588,0.1655,0.1731,0.1816,0.1888,0.1996,0.2061,0.2158,0.2213,0.2307,0.2365,0.2379,0.2364,0.2454,0.23,0.2289,0.2374,0.2366,0.2359,0.2347,0.2449,0.2449,0.2448,0.2448,0,0.1366,0.1433,0.1492,0.1601,0.164,0.1694,0.1814,0.1869,0.1994,0.2081,0.2127,0.225,0.2331,0.2393,0.247,0.2399,0.2407,0.2377,0.2478,0.2471,0.2227,0.2218,0.2259,0.2255,0.2252,0.2249,0.2246,0,0.1339,0.1367,0.1484,0.1521,0.1577,0.1668,0.1723,0.1853,0.191,0.2078,0.2105,0.2234,0.2298,0.2294,0.2373,0.2393,0.2361,0.2347,0.2265,0.2223,0.2209,0.2206,0.2202,0.2241,0.224,0.2239,0.2238,0,0.1283,0.1338,0.1384,0.1462,0.1529,0.1586,0.1683,0.1706,0.1855,0.198,0.2036,0.2077,0.216,0.2209,0.2246,0.225,0.2345,0.2309,0.2315,0.2239,0.2201,0.219,0.219,0.2226,0.2227,0.2229,0.2229,0,0.1241,0.1254,0.1325,0.1378,0.1456,0.1484,0.1543,0.1609,0.1677,0.1861,0.1876,0.2011,0.2138,0.2136,0.2168,0.2168,0.2128,0.2046,0.2065,0.2079,0.1983,0.1906,0.1838,0,0,0,0,0,0.1187,0.1189,0.1234,0.1282,0.1353,0.1401,0.1504,0.1568,0.1709,0.1702,0.1783,0.1851,0.1902,0.1973,0.1937,0.209,0.2137,0.2038,0.2052,0.2158,0.2172,0.2074,0,0,0,0,0,0,0.1148,0.1186,0.1196,0.1192,0.121,0.1275,0.1335,0.143,0.1436,0.1586,0.1625,0.1742,0.1822,0.1906,0.1903,0.1924,0.1895,0.2127,0.2123,0.215,0.2163,0.2174,0.2079,0,0,0,0,0]},{"header":{"parameterUnit":"m.s-1","parameterCategory":2,"la1":30.2991,"la2":30.254,"lo1":-89.0895,"lo2":-89.0444,"dy":0.0017,"dx":0.0017,"nx":28,"ny":28,"refTime":"2024-08-28T21:00:00:Z","depth":"4","parameterNumber":3,"parameterNumberName":"V-component_of_CURRENTS"},"data":[0,0,0,0,0,0,0,0,0,0,0,0,0,0,0,0,0,0,0,0,0,0,0,0,0,0,0,0,0,0,0,0,0,0,0,0,0,0,0,0,0,0,0,0,0,0,0,0,0,0,0,0,0,0,0,0,0,0,-0.0014,-0.0014,0,-0.0049,-0.005,-0.005,-0.0078,-0.0078,-0.0078,-0.0079,-0.0149,-0.015,-0.0152,0,0,0,0,0,0,0,0,0,0,0,0,0,0.0007,0.0007,-0.0014,-0.0014,-0.0015,-0.0049,-0.005,-0.005,-0.0078,-0.0078,-0.0079,-0.0079,-0.0148,-0.015,-0.0152,0,0,0,0,0,0,0,0,0,0,0,0,0,-0.0013,0.0007,-0.0014,-0.0032,-0.0034,-0.0049,-0.005,-0.005,-0.0078,-0.0078,-0.0079,-0.0079,-0.0147,-0.015,-0.0152,-0.0161,0,0,-0.016,-0.0161,0,0,0,0,0,0,0,0,-0.0012,-0.0014,-0.0029,-0.0031,-0.0033,-0.0059,-0.0068,-0.0089,-0.0078,-0.0062,-0.0079,-0.0079,-0.0121,-0.0126,-0.0132,-0.0164,-0.0167,-0.016,-0.0162,-0.0163,-0.0163,0,0,0,0,0,0,0,-0.0011,-0.0013,-0.0029,-0.0029,-0.0032,-0.0046,-0.0049,-0.0072,-0.009,-0.0063,-0.0065,-0.0068,-0.0123,-0.013,-0.0134,-0.0168,-0.016,-0.0162,-0.0164,-0.0165,-0.0218,-0.0218,0,0,0,0,0,0,-0.0003,-0.0011,-0.0027,-0.003,-0.0022,-0.0046,-0.005,-0.0051,-0.009,-0.0095,-0.0068,-0.0069,-0.0125,-0.0131,-0.0137,-0.0148,-0.0163,-0.0165,-0.0166,-0.0218,-0.0218,-0.0218,0,0,0,0,0,0,-0.0003,-0.0004,-0.0026,-0.0021,-0.0025,-0.0046,-0.0047,-0.0051,-0.006,-0.0092,-0.0099,-0.0072,-0.0126,-0.0133,-0.0153,-0.0151,-0.0166,-0.0168,-0.0218,-0.0218,-0.0218,-0.0171,0,0,0,0,0,0,-0.0002,-0.0004,-0.0002,-0.002,-0.0024,-0.0031,-0.0047,-0.0052,-0.006,-0.0063,-0.0098,-0.0105,-0.0127,-0.0149,-0.0156,-0.0154,-0.017,-0.0218,-0.0218,-0.0218,-0.0173,-0.0169,-0.0166,0,0,0,0,0,-0.0001,0.0006,-0.0001,-0.0003,-0.0021,-0.0031,-0.0034,-0.0051,-0.006,-0.0061,-0.0083,-0.0104,-0.0153,-0.0151,-0.0159,-0.0158,-0.0218,-0.0218,-0.0218,-0.0174,-0.017,-0.0166,0,0,0,0,0,0,0.0016,0.0003,-0.0005,-0.0003,-0.0015,-0.0035,-0.0036,-0.0049,-0.0067,-0.0069,-0.0102,-0.011,-0.0127,-0.0149,-0.0146,-0.0174,-0.019,-0.0191,-0.0154,-0.015,-0.0147,-0.0131,-0.0172,0,0,0,0,0,0.0021,0.0023,0.0006,0.0008,0.0004,-0.0016,-0.0022,-0.0033,-0.0051,-0.0059,-0.0083,-0.011,-0.0132,-0.0145,-0.0168,-0.0182,-0.0206,-0.0188,-0.0185,-0.0182,-0.0174,-0.0206,-0.0205,-0.0217,-0.0217,-0.0217,0,0,0.0029,0.0022,0.0023,0.0012,0.0002,0.0004,-0.002,-0.0025,-0.0024,-0.0064,-0.0071,-0.0099,-0.0133,-0.0148,-0.0158,-0.0166,-0.0192,-0.0182,-0.0179,-0.0173,-0.0206,-0.0205,-0.0204,-0.0217,-0.0217,-0.0217,0,0,0.005,0.0039,0.0049,0.0042,0.0031,0.0019,0.0019,0.0,-0.0009,-0.0021,-0.0049,-0.0072,-0.0106,-0.0128,-0.0144,-0.0138,-0.0173,-0.0149,-0.0122,-0.0153,-0.0152,-0.0151,-0.0181,-0.0184,-0.0148,-0.0148,-0.0148,0,0.0059,0.0068,0.005,0.0057,0.0058,0.0029,0.0041,0.0027,0.0004,-0.0,-0.0016,-0.0064,-0.0095,-0.0114,-0.0112,-0.0131,-0.0154,-0.0131,-0.0148,-0.0148,-0.0148,-0.0179,-0.0183,-0.0146,-0.0146,-0.0147,-0.0147,0,0.0085,0.0092,0.0098,0.0099,0.0097,0.0101,0.0084,0.0078,0.0061,0.0045,0.0023,-0.002,-0.0047,-0.0065,-0.0087,-0.0104,-0.0122,-0.0139,-0.0154,-0.0144,-0.0178,-0.0182,-0.0143,-0.0144,-0.0144,-0.0145,0,0,0.0107,0.0115,0.0118,0.013,0.0121,0.0125,0.0127,0.0121,0.0125,0.009,0.0089,0.0042,0.0015,-0.0005,-0.0042,-0.0072,-0.0098,-0.0102,-0.0104,-0.0126,-0.0167,-0.0165,-0.017,-0.0119,-0.0119,-0.0119,-0.019,0,0.0133,0.0159,0.0156,0.0184,0.0198,0.0181,0.0188,0.0178,0.016,0.015,0.0099,0.0083,0.0039,0.0026,-0.0011,-0.0074,-0.0107,-0.0077,-0.0179,-0.0182,-0.0177,-0.0174,-0.0121,-0.0194,-0.0195,-0.0195,-0.0196,0,0.016,0.0175,0.0209,0.0232,0.0238,0.0251,0.0261,0.0264,0.024,0.0226,0.0195,0.0153,0.0105,0.0066,-0.0036,-0.0015,-0.0083,-0.0137,-0.0142,-0.0157,-0.0188,-0.0208,-0.0204,-0.0204,-0.0203,-0.0203,-0.0202,0,0.0188,0.0215,0.0246,0.0252,0.027,0.0287,0.0296,0.0289,0.03,0.0276,0.0277,0.0208,0.0178,0.0085,-0.0028,-0.0032,-0.0143,-0.0166,-0.0231,-0.0232,-0.0233,-0.0233,-0.0237,-0.0237,-0.0237,-0.0237,-0.0236,0,0.0215,0.0241,0.0263,0.0281,0.0323,0.0325,0.0364,0.0361,0.0364,0.0382,0.0321,0.0312,0.0181,0.01,-0.0008,-0.0129,-0.0131,-0.0222,-0.0248,-0.0212,-0.0209,-0.0237,-0.0235,-0.0239,-0.0239,-0.0238,-0.0238,0,0.0238,0.0252,0.0292,0.0323,0.0339,0.0369,0.0413,0.0437,0.0436,0.0459,0.0455,0.0387,0.0282,0.0145,-0.0008,-0.0095,-0.0216,-0.026,-0.0207,-0.023,-0.029,-0.0286,-0.0337,-0.0337,-0.0338,-0.0338,-0.0338,0,0.025,0.0273,0.0323,0.0352,0.037,0.0416,0.045,0.0471,0.0499,0.0504,0.0515,0.043,0.0365,0.0159,0.0006,-0.0197,-0.023,-0.0291,-0.0296,-0.0279,-0.03,-0.0295,-0.029,-0.0339,-0.0339,-0.0339,-0.0339,0,0.0268,0.0288,0.0318,0.0378,0.0424,0.0479,0.0529,0.0555,0.0581,0.0586,0.057,0.0465,0.0345,0.0172,0.0014,-0.0135,-0.025,-0.0296,-0.0297,-0.0302,-0.0283,-0.0301,-0.0296,-0.034,-0.034,-0.034,-0.034,0,0.0278,0.0299,0.034,0.0395,0.0458,0.0517,0.0546,0.0583,0.0612,0.062,0.0612,0.0488,0.0417,0.0204,0.0058,-0.0086,-0.013,-0.0177,-0.0185,-0.0185,-0.0124,-0.0076,-0.0088,0,0,0,0,0,0.0278,0.03,0.0351,0.041,0.0478,0.0517,0.0587,0.0611,0.064,0.0641,0.0631,0.0524,0.032,0.0231,0.0086,0.0025,-0.0173,-0.0151,-0.0236,-0.0348,-0.0347,-0.0301,0,0,0,0,0,0,0.0272,0.0314,0.0342,0.0416,0.0461,0.0536,0.0583,0.0608,0.0611,0.0622,0.0517,0.0484,0.028,0.04,0.0081,0.0037,-0.0037,-0.0242,-0.0246,-0.0349,-0.0348,-0.0346,-0.0299,0,0,0,0,0]}]]